,,PA_Meas_PMT16A,,PR_Meas_QMR101_102,,RH_Meas_QMH101,,SR_Meas_QMS101,,TA_Meas_QMH101,,GenWind,,GenWind,
time,status,PA,status,PR,status,RH,status,SR,status,TA,status,DirAvg,status,SpdAvg,
2014-06-27, 07:04:04,VALID,919.853,VALID,0,VALID,93.303,VALID,21.1659,VALID,18.9452,VALID,133,VALID,1.40977,
2014-06-27, 07:05:04,VALID,919.869,VALID,0,VALID,93.2649,VALID,22.2403,VALID,18.9438,VALID,136,VALID,0.988672,
2014-06-27, 07:06:04,VALID,919.899,VALID,0,VALID,93.2191,VALID,23.2073,VALID,18.9438,VALID,144,VALID,1.05352,
2014-06-27, 07:07:04,VALID,919.891,VALID,0,VALID,93.1734,VALID,24.3891,VALID,18.9633,VALID,141,VALID,1.04414,
2014-06-27, 07:08:04,VALID,919.928,VALID,0,VALID,93.1124,VALID,25.7859,VALID,18.9828,VALID,142,VALID,1.23867,
2014-06-27, 07:09:04,VALID,919.902,VALID,0,VALID,92.9676,VALID,27.1826,VALID,19.0023,VALID,140,VALID,1.08398,
2014-06-27, 07:10:04,VALID,919.926,VALID,0,VALID,92.838,VALID,28.9017,VALID,19.0218,VALID,139,VALID,1.0207,
2014-06-27, 07:11:04,VALID,919.926,VALID,0,VALID,92.8227,VALID,30.7282,VALID,19.0413,VALID,136,VALID,0.978906,
2014-06-27, 07:12:04,VALID,919.953,VALID,0,VALID,92.7846,VALID,32.2323,VALID,19.0413,VALID,135,VALID,1.28047,
2014-06-27, 07:13:04,VALID,919.947,VALID,0,VALID,92.7465,VALID,33.7365,VALID,19.0608,VALID,134,VALID,1.00586,
2014-06-27, 07:14:04,VALID,919.952,VALID,0,VALID,92.716,VALID,35.0258,VALID,19.0608,VALID,134,VALID,0.952734,
2014-06-27, 07:15:04,VALID,919.967,VALID,0,VALID,92.6321,VALID,36.53,VALID,19.0803,VALID,134,VALID,1.11367,
2014-06-27, 07:16:04,VALID,919.996,VALID,0,VALID,92.5483,VALID,38.2491,VALID,19.1193,VALID,134,VALID,0.899609,
2014-06-27, 07:17:04,VALID,919.993,VALID,0,VALID,92.5178,VALID,40.2904,VALID,19.1583,VALID,134,VALID,0.818359,
2014-06-27, 07:18:04,VALID,919.986,VALID,0,VALID,92.4568,VALID,42.4393,VALID,19.1373,VALID,128,VALID,1.15313,
2014-06-27, 07:19:04,VALID,919.953,VALID,0,VALID,92.3806,VALID,44.6955,VALID,19.1973,VALID,127,VALID,0.820703,
2014-06-27, 07:20:04,VALID,919.986,VALID,0,VALID,92.2967,VALID,46.9518,VALID,19.1778,VALID,120,VALID,1.09102,
2014-06-27, 07:21:04,VALID,919.98,VALID,0,VALID,92.1671,VALID,49.4229,VALID,19.1973,VALID,120,VALID,1.17539,
2014-06-27, 07:22:04,VALID,919.977,VALID,0,VALID,92.1595,VALID,52.0015,VALID,19.2363,VALID,119,VALID,0.989844,
2014-06-27, 07:23:04,VALID,920,VALID,0,VALID,92.129,VALID,54.6875,VALID,19.2558,VALID,119,VALID,0.970703,
2014-06-27, 07:24:04,VALID,920.004,VALID,0,VALID,92.4873,VALID,57.3736,VALID,19.2948,VALID,118,VALID,0.352734,
2014-06-27, 07:25:04,VALID,920.019,VALID,0,VALID,92.3806,VALID,60.167,VALID,19.2948,VALID,117,VALID,0.720703,
2014-06-27, 07:26:04,VALID,919.999,VALID,0,VALID,92.2205,VALID,62.7456,VALID,19.3143,VALID,118,VALID,0.486719,
2014-06-27, 07:27:04,VALID,919.996,VALID,0,VALID,92.0832,VALID,65.0019,VALID,19.3533,VALID,118,VALID,0.172656,
2014-06-27, 07:28:04,VALID,920.019,VALID,0,VALID,91.9841,VALID,67.2582,VALID,19.4313,VALID,119,VALID,0.596484,
2014-06-27, 07:29:04,VALID,920.009,VALID,0,VALID,91.603,VALID,69.2995,VALID,19.4508,VALID,121,VALID,0.548828,
2014-06-27, 07:30:04,VALID,920.031,VALID,0,VALID,91.4886,VALID,71.6632,VALID,19.5288,VALID,121,VALID,0.626562,
2014-06-27, 07:31:04,VALID,920.008,VALID,0,VALID,91.3209,VALID,74.3493,VALID,19.5468,VALID,121,VALID,0.469922,
2014-06-27, 07:32:04,VALID,920.008,VALID,0,VALID,91.2599,VALID,77.3576,VALID,19.6263,VALID,121,VALID,0.439844,
2014-06-27, 07:33:04,VALID,920.018,VALID,0,VALID,91.542,VALID,80.9032,VALID,19.6653,VALID,121,VALID,0.500781,
2014-06-27, 07:34:04,VALID,920.016,VALID,0,VALID,91.4276,VALID,84.7711,VALID,19.7043,VALID,121,VALID,0.404687,
2014-06-27, 07:35:04,VALID,920.016,VALID,0,VALID,91.7402,VALID,88.5315,VALID,19.7223,VALID,121,VALID,0.289063,
2014-06-27, 07:36:04,VALID,920.018,VALID,0,VALID,92.2052,VALID,91.6473,VALID,19.8003,VALID,121,VALID,0.383203,
2014-06-27, 07:37:04,VALID,920.014,VALID,0,VALID,92.0223,VALID,94.6557,VALID,19.7808,VALID,121,VALID,0.394531,
2014-06-27, 07:38:04,VALID,920.035,VALID,0,VALID,92.3043,VALID,97.664,VALID,19.8603,VALID,121,VALID,0.116406,
2014-06-27, 07:39:04,VALID,920.037,VALID,0,VALID,92.3424,VALID,100.887,VALID,19.8978,VALID,121,VALID,0.299609,
2014-06-27, 07:40:04,VALID,920.059,VALID,0,VALID,92.2433,VALID,104.003,VALID,19.9578,VALID,121,VALID,0.434766,
2014-06-27, 07:41:04,VALID,920.064,VALID,0,VALID,91.7097,VALID,106.797,VALID,19.9578,VALID,118,VALID,0.638672,
2014-06-27, 07:42:04,VALID,920.081,VALID,0,VALID,91.4505,VALID,109.375,VALID,19.9563,VALID,119,VALID,0.723828,
2014-06-27, 07:43:04,VALID,920.067,VALID,0,VALID,91.359,VALID,111.739,VALID,19.9758,VALID,114,VALID,0.388672,
2014-06-27, 07:44:04,VALID,920.091,VALID,0,VALID,91.5572,VALID,113.78,VALID,20.0358,VALID,114,VALID,0.490234,
2014-06-27, 07:45:04,VALID,920.1,VALID,0,VALID,91.8927,VALID,115.929,VALID,20.1139,VALID,114,VALID,0.202734,
2014-06-27, 07:46:04,VALID,920.127,VALID,0,VALID,91.7326,VALID,118.185,VALID,20.1334,VALID,124,VALID,0.60625,
2014-06-27, 07:47:04,VALID,920.163,VALID,0,VALID,90.8254,VALID,120.656,VALID,20.1529,VALID,137,VALID,0.703125,
2014-06-27, 07:48:04,VALID,920.15,VALID,0,VALID,90.6958,VALID,123.235,VALID,20.1903,VALID,137,VALID,0.410547,
2014-06-27, 07:49:04,VALID,920.184,VALID,0,VALID,89.5904,VALID,125.921,VALID,20.1903,VALID,137,VALID,0.644531,
2014-06-27, 07:50:04,VALID,920.215,VALID,0,VALID,90.2384,VALID,130.219,VALID,20.2684,VALID,137,VALID,0.384375,
2014-06-27, 07:51:04,VALID,920.252,VALID,0,VALID,89.7962,VALID,136.773,VALID,20.2879,VALID,137,VALID,0.219922,
2014-06-27, 07:52:04,VALID,920.268,VALID,0,VALID,89.9334,VALID,139.351,VALID,20.3659,VALID,137,VALID,0.096875,
2014-06-27, 07:53:04,VALID,920.293,VALID,0,VALID,89.659,VALID,141.178,VALID,20.4634,VALID,137,VALID,0,
2014-06-27, 07:54:04,VALID,920.331,VALID,0,VALID,89.3922,VALID,141.07,VALID,20.5414,VALID,56,VALID,0.708594,
2014-06-27, 07:55:04,VALID,920.322,VALID,0,VALID,89.0567,VALID,140.318,VALID,20.639,VALID,56,VALID,0.19375,
2014-06-27, 07:56:04,VALID,920.333,VALID,0,VALID,89.1101,VALID,141.715,VALID,20.7365,VALID,56,VALID,0.478516,
2014-06-27, 07:57:04,VALID,920.367,VALID,0,VALID,88.8662,VALID,151.707,VALID,20.7755,VALID,56,VALID,0.628906,
2014-06-27, 07:58:04,VALID,920.361,VALID,0,VALID,88.8357,VALID,156.757,VALID,20.6975,VALID,56,VALID,0.518359,
2014-06-27, 07:59:04,VALID,920.373,VALID,0,VALID,88.6908,VALID,170.294,VALID,20.6194,VALID,56,VALID,0.172266,
2014-06-27, 08:00:04,VALID,920.364,VALID,0,VALID,88.5536,VALID,165.137,VALID,20.5999,VALID,56,VALID,0.164063,
2014-06-27, 08:01:04,VALID,920.397,VALID,0,VALID,88.3783,VALID,164.492,VALID,20.5804,VALID,56,VALID,0.219141,
2014-06-27, 08:02:04,VALID,920.391,VALID,0,VALID,88.4774,VALID,176.096,VALID,20.639,VALID,56,VALID,0.15625,
2014-06-27, 08:03:04,VALID,920.422,VALID,0,VALID,88.5231,VALID,176.203,VALID,20.6975,VALID,56,VALID,0,
2014-06-27, 08:04:04,VALID,920.43,VALID,0,VALID,87.8599,VALID,159.12,VALID,20.717,VALID,56,VALID,0.419922,
2014-06-27, 08:05:04,VALID,920.414,VALID,0,VALID,87.7455,VALID,171.798,VALID,20.7544,VALID,56,VALID,0.14375,
2014-06-27, 08:06:04,VALID,920.421,VALID,0,VALID,87.8446,VALID,182.543,VALID,20.8519,VALID,56,VALID,0,
2014-06-27, 08:07:04,VALID,920.415,VALID,0,VALID,87.0518,VALID,189.096,VALID,21.0096,VALID,56,VALID,0,
2014-06-27, 08:08:04,VALID,920.401,VALID,0,VALID,86.2818,VALID,230.891,VALID,21.1071,VALID,56,VALID,0,
2014-06-27, 08:09:04,VALID,920.387,VALID,0,VALID,86.1065,VALID,250.553,VALID,21.2031,VALID,56,VALID,0,
2014-06-27, 08:10:04,VALID,920.399,VALID,0,VALID,85.7101,VALID,242.495,VALID,21.3412,VALID,56,VALID,0.131641,
2014-06-27, 08:11:04,VALID,920.425,VALID,0,VALID,84.8867,VALID,251.52,VALID,21.4177,VALID,56,VALID,0.376563,
2014-06-27, 08:12:04,VALID,920.403,VALID,0,VALID,84.6885,VALID,246.685,VALID,21.4177,VALID,56,VALID,0.433203,
2014-06-27, 08:13:04,VALID,920.383,VALID,0,VALID,84.6047,VALID,249.478,VALID,21.4372,VALID,55,VALID,0.406641,
2014-06-27, 08:14:04,VALID,920.407,VALID,0,VALID,83.9033,VALID,183.187,VALID,21.4177,VALID,56,VALID,0.446875,
2014-06-27, 08:15:04,VALID,920.396,VALID,0,VALID,84.1625,VALID,211.767,VALID,21.3981,VALID,56,VALID,0.35625,
2014-06-27, 08:16:04,VALID,920.405,VALID,0,VALID,84.5666,VALID,275.264,VALID,21.377,VALID,56,VALID,0.455469,
2014-06-27, 08:17:04,VALID,920.385,VALID,0,VALID,83.9338,VALID,252.594,VALID,21.3786,VALID,56,VALID,0.293359,
2014-06-27, 08:18:04,VALID,920.389,VALID,0,VALID,84.4903,VALID,248.726,VALID,21.4355,VALID,56,VALID,0.366406,
2014-06-27, 08:19:04,VALID,920.38,VALID,0,VALID,84.2845,VALID,210.37,VALID,21.6713,VALID,56,VALID,0.434766,
2014-06-27, 08:20:04,VALID,920.403,VALID,0,VALID,82.3558,VALID,183.617,VALID,21.8469,VALID,56,VALID,0.303906,
2014-06-27, 08:21:04,VALID,920.382,VALID,0,VALID,80.1755,VALID,173.84,VALID,21.9835,VALID,56,VALID,0,
2014-06-27, 08:22:04,VALID,920.421,VALID,0,VALID,79.5808,VALID,170.079,VALID,22.0794,VALID,56,VALID,0.257031,
2014-06-27, 08:23:04,VALID,920.41,VALID,0,VALID,81.0064,VALID,169.22,VALID,22.0989,VALID,56,VALID,0.639844,
2014-06-27, 08:24:04,VALID,920.417,VALID,0,VALID,81.1818,VALID,171.476,VALID,22.0403,VALID,56,VALID,0.771484,
2014-06-27, 08:25:04,VALID,920.454,VALID,0,VALID,81.3952,VALID,173.517,VALID,21.9623,VALID,56,VALID,0.457812,
2014-06-27, 08:26:04,VALID,920.42,VALID,0,VALID,82.2414,VALID,174.377,VALID,21.9851,VALID,56,VALID,0.809375,
2014-06-27, 08:27:04,VALID,920.421,VALID,0,VALID,81.4791,VALID,175.774,VALID,21.9656,VALID,56,VALID,0.477734,
2014-06-27, 08:28:04,VALID,920.435,VALID,0,VALID,82.3405,VALID,178.137,VALID,21.964,VALID,56,VALID,0.539063,
2014-06-27, 08:29:04,VALID,920.459,VALID,0,VALID,81.075,VALID,181.468,VALID,22.0437,VALID,56,VALID,0.523438,
2014-06-27, 08:30:04,VALID,920.444,VALID,0,VALID,80.8006,VALID,187.592,VALID,22.1005,VALID,56,VALID,0.341406,
2014-06-27, 08:31:04,VALID,920.46,VALID,0,VALID,80.9607,VALID,195.865,VALID,22.1803,VALID,56,VALID,0.31875,
2014-06-27, 08:32:04,VALID,920.512,VALID,0,VALID,81.2046,VALID,201.452,VALID,22.2371,VALID,56,VALID,0.576953,
2014-06-27, 08:33:04,VALID,920.519,VALID,0,VALID,81.9975,VALID,207.684,VALID,22.2957,VALID,56,VALID,0.493359,
2014-06-27, 08:34:04,VALID,920.539,VALID,0,VALID,81.2046,VALID,211.552,VALID,22.3737,VALID,56,VALID,0.515625,
2014-06-27, 08:35:04,VALID,920.55,VALID,0,VALID,79.8629,VALID,213.593,VALID,22.3933,VALID,56,VALID,0.966797,
2014-06-27, 08:36:04,VALID,920.545,VALID,0,VALID,79.9468,VALID,215.42,VALID,22.3152,VALID,60,VALID,1.0375,
2014-06-27, 08:37:04,VALID,920.532,VALID,0,VALID,80.8463,VALID,217.139,VALID,22.2371,VALID,56,VALID,1.14961,
2014-06-27, 08:38:04,VALID,920.529,VALID,0,VALID,81.9288,VALID,219.61,VALID,22.1396,VALID,56,VALID,1.03555,
2014-06-27, 08:39:04,VALID,920.528,VALID,0,VALID,82.8284,VALID,223.048,VALID,22.1591,VALID,56,VALID,1.0957,
2014-06-27, 08:40:04,VALID,920.485,VALID,0,VALID,83.1943,VALID,230.139,VALID,22.0989,VALID,56,VALID,1.16875,
2014-06-27, 08:41:04,VALID,920.488,VALID,0,VALID,83.0419,VALID,228.527,VALID,22.0615,VALID,56,VALID,1.16758,
2014-06-27, 08:42:04,VALID,920.495,VALID,0,VALID,82.1957,VALID,227.023,VALID,22.003,VALID,56,VALID,1.23906,
2014-06-27, 08:43:04,VALID,920.47,VALID,0,VALID,81.7383,VALID,227.883,VALID,22.0225,VALID,350,VALID,1.13711,
2014-06-27, 08:44:04,VALID,920.445,VALID,0,VALID,81.6925,VALID,225.304,VALID,22.1201,VALID,352,VALID,0.571094,
2014-06-27, 08:45:04,VALID,920.461,VALID,0,VALID,80.8387,VALID,221.866,VALID,22.2371,VALID,352,VALID,0.351563,
2014-06-27, 08:46:04,VALID,920.449,VALID,0,VALID,78.9481,VALID,217.998,VALID,22.3347,VALID,352,VALID,0.917578,
2014-06-27, 08:47:04,VALID,920.466,VALID,0,VALID,80.3508,VALID,214.345,VALID,22.4501,VALID,355,VALID,0.728125,
2014-06-27, 08:48:04,VALID,920.471,VALID,0,VALID,80.5566,VALID,210.8,VALID,22.5494,VALID,354,VALID,0.635156,
2014-06-27, 08:49:04,VALID,920.464,VALID,0,VALID,80.1831,VALID,208.436,VALID,22.6665,VALID,355,VALID,0.397656,
2014-06-27, 08:50:04,VALID,920.463,VALID,0,VALID,77.0956,VALID,207.254,VALID,22.7233,VALID,355,VALID,0.380859,
2014-06-27, 08:51:04,VALID,920.483,VALID,0,VALID,77.7055,VALID,207.361,VALID,22.8421,VALID,355,VALID,0.281641,
2014-06-27, 08:52:04,VALID,920.492,VALID,0,VALID,80.3279,VALID,207.684,VALID,22.8794,VALID,355,VALID,0.416016,
2014-06-27, 08:53:04,VALID,920.501,VALID,0,VALID,77.7055,VALID,207.899,VALID,22.8794,VALID,10,VALID,0.425781,
2014-06-27, 08:54:04,VALID,920.535,VALID,0,VALID,79.1387,VALID,209.403,VALID,22.8794,VALID,10,VALID,0.507813,
2014-06-27, 08:55:04,VALID,920.539,VALID,0,VALID,78.2239,VALID,212.304,VALID,22.8599,VALID,10,VALID,0.485156,
2014-06-27, 08:56:04,VALID,920.545,VALID,0,VALID,78.7804,VALID,214.56,VALID,22.8599,VALID,10,VALID,0.303516,
2014-06-27, 08:57:04,VALID,920.543,VALID,0,VALID,78.7651,VALID,217.998,VALID,22.8404,VALID,10,VALID,0.611719,
2014-06-27, 08:58:04,VALID,920.587,VALID,0,VALID,80.2136,VALID,223.692,VALID,22.8404,VALID,9,VALID,0.412109,
2014-06-27, 08:59:04,VALID,920.594,VALID,0,VALID,79.0015,VALID,231.106,VALID,22.8794,VALID,9,VALID,0.253906,
2014-06-27, 09:00:04,VALID,920.561,VALID,0,VALID,79.4894,VALID,247.759,VALID,22.9965,VALID,10,VALID,0.226563,
2014-06-27, 09:01:04,VALID,920.584,VALID,0,VALID,77.7512,VALID,264.09,VALID,23.1527,VALID,8,VALID,0.321484,
2014-06-27, 09:02:04,VALID,920.58,VALID,0,VALID,74.5494,VALID,266.239,VALID,23.2698,VALID,359,VALID,0.451172,
2014-06-27, 09:03:04,VALID,920.602,VALID,0,VALID,73.0781,VALID,252.487,VALID,23.3283,VALID,353,VALID,0.426172,
2014-06-27, 09:04:04,VALID,920.594,VALID,0,VALID,71.4085,VALID,253.669,VALID,23.4454,VALID,351,VALID,0.653516,
2014-06-27, 09:05:04,VALID,920.601,VALID,0,VALID,71.9269,VALID,258.396,VALID,23.465,VALID,351,VALID,0.433594,
2014-06-27, 09:06:04,VALID,920.585,VALID,0,VALID,71.0655,VALID,260.545,VALID,23.5235,VALID,353,VALID,0.667188,
2014-06-27, 09:07:04,VALID,920.603,VALID,0,VALID,71.6296,VALID,266.024,VALID,23.5821,VALID,353,VALID,0.45,
2014-06-27, 09:08:04,VALID,920.632,VALID,0,VALID,71.6754,VALID,272.363,VALID,23.6016,VALID,345,VALID,0.292188,
2014-06-27, 09:09:04,VALID,920.657,VALID,0,VALID,71.4162,VALID,280.529,VALID,23.6016,VALID,345,VALID,0.433594,
2014-06-27, 09:10:04,VALID,920.658,VALID,0,VALID,72.4529,VALID,288.265,VALID,23.543,VALID,345,VALID,0.408984,
2014-06-27, 09:11:04,VALID,920.689,VALID,0,VALID,72.27,VALID,294.926,VALID,23.504,VALID,344,VALID,0.563672,
2014-06-27, 09:12:04,VALID,920.658,VALID,0,VALID,70.3641,VALID,303.521,VALID,23.4241,VALID,340,VALID,0.2875,
2014-06-27, 09:13:04,VALID,920.658,VALID,0,VALID,69.4036,VALID,308.678,VALID,23.4064,VALID,340,VALID,0.594531,
2014-06-27, 09:14:04,VALID,920.678,VALID,0,VALID,71.3399,VALID,310.183,VALID,23.3656,VALID,340,VALID,0.176563,
2014-06-27, 09:15:04,VALID,920.646,VALID,0,VALID,75.6853,VALID,306.422,VALID,23.4632,VALID,340,VALID,0.671094,
2014-06-27, 09:16:04,VALID,920.643,VALID,0,VALID,72.552,VALID,301.587,VALID,23.4241,VALID,340,VALID,0.486719,
2014-06-27, 09:17:04,VALID,920.65,VALID,0,VALID,74.4579,VALID,296.108,VALID,23.3851,VALID,340,VALID,0.428516,
2014-06-27, 09:18:04,VALID,920.613,VALID,0,VALID,74.2826,VALID,291.81,VALID,23.3478,VALID,340,VALID,0.473047,
2014-06-27, 09:19:04,VALID,920.638,VALID,0,VALID,70.6157,VALID,289.339,VALID,23.3691,VALID,340,VALID,0.301172,
2014-06-27, 09:20:04,VALID,920.613,VALID,0,VALID,77.0727,VALID,288.802,VALID,23.3674,VALID,340,VALID,0.488281,
2014-06-27, 09:21:04,VALID,920.66,VALID,0,VALID,77.3624,VALID,290.628,VALID,23.3887,VALID,340,VALID,0.336719,
2014-06-27, 09:22:04,VALID,920.633,VALID,0,VALID,77.0956,VALID,293.099,VALID,23.3869,VALID,340,VALID,0.503906,
2014-06-27, 09:23:04,VALID,920.639,VALID,0,VALID,79.4131,VALID,294.281,VALID,23.3887,VALID,340,VALID,0.780859,
2014-06-27, 09:24:04,VALID,920.678,VALID,0,VALID,79.5122,VALID,296.967,VALID,23.2502,VALID,340,VALID,0.663281,
2014-06-27, 09:25:04,VALID,920.672,VALID,0,VALID,78.6889,VALID,299.653,VALID,23.252,VALID,340,VALID,0.596094,
2014-06-27, 09:26:04,VALID,920.688,VALID,0,VALID,79.1616,VALID,302.662,VALID,23.2893,VALID,351,VALID,0.447266,
2014-06-27, 09:27:04,VALID,920.695,VALID,0,VALID,77.431,VALID,306.53,VALID,23.3674,VALID,330,VALID,0.469922,
2014-06-27, 09:28:04,VALID,920.691,VALID,0,VALID,77.2023,VALID,309.216,VALID,23.4454,VALID,330,VALID,0.040625,
2014-06-27, 09:29:04,VALID,920.72,VALID,0,VALID,76.9279,VALID,312.009,VALID,23.5803,VALID,16,VALID,0.320703,
2014-06-27, 09:30:04,VALID,920.702,VALID,0,VALID,76.1656,VALID,316.307,VALID,23.7773,VALID,16,VALID,0.201172,
2014-06-27, 09:31:04,VALID,920.707,VALID,0,VALID,73.2839,VALID,322.646,VALID,23.9335,VALID,13,VALID,0.864844,
2014-06-27, 09:32:04,VALID,920.68,VALID,0,VALID,72.2242,VALID,329.629,VALID,24.0896,VALID,356,VALID,0.238281,
2014-06-27, 09:33:04,VALID,920.679,VALID,0,VALID,72.7579,VALID,337.043,VALID,24.2049,VALID,336,VALID,0.360938,
2014-06-27, 09:34:04,VALID,920.7,VALID,0,VALID,72.8494,VALID,342.415,VALID,24.363,VALID,270,VALID,0.196875,
2014-06-27, 09:35:04,VALID,920.7,VALID,0,VALID,73.3144,VALID,346.82,VALID,24.4411,VALID,348,VALID,0.727734,
2014-06-27, 09:36:04,VALID,920.723,VALID,0,VALID,69.8915,VALID,347.572,VALID,24.4997,VALID,358,VALID,0.49375,
2014-06-27, 09:37:04,VALID,920.683,VALID,0,VALID,71.1722,VALID,347.894,VALID,24.4392,VALID,339,VALID,0.210156,
2014-06-27, 09:38:04,VALID,920.693,VALID,0,VALID,71.7973,VALID,343.489,VALID,24.5192,VALID,3,VALID,0.715234,
2014-06-27, 09:39:04,VALID,920.716,VALID,0,VALID,69.8076,VALID,341.77,VALID,24.4978,VALID,313,VALID,0.705859,
2014-06-27, 09:40:04,VALID,920.711,VALID,0,VALID,69.9601,VALID,343.489,VALID,24.5387,VALID,348,VALID,0.529688,
2014-06-27, 09:41:04,VALID,920.735,VALID,0,VALID,70.3184,VALID,352.622,VALID,24.5368,VALID,20,VALID,0.826563,
2014-06-27, 09:42:04,VALID,920.731,VALID,0,VALID,71.7821,VALID,376.904,VALID,24.5778,VALID,280,VALID,0.690234,
2014-06-27, 09:43:04,VALID,920.759,VALID,0,VALID,72.3538,VALID,372.928,VALID,24.5954,VALID,279,VALID,0.173047,
2014-06-27, 09:44:04,VALID,920.742,VALID,0,VALID,70.7148,VALID,365.73,VALID,24.5759,VALID,279,VALID,0.448828,
2014-06-27, 09:45:04,VALID,920.753,VALID,0,VALID,70.9588,VALID,370.994,VALID,24.4392,VALID,279,VALID,0.498047,
2014-06-27, 09:46:04,VALID,920.742,VALID,0,VALID,71.8202,VALID,364.87,VALID,24.283,VALID,245,VALID,0.765625,
2014-06-27, 09:47:04,VALID,920.725,VALID,0,VALID,72.5902,VALID,364.225,VALID,24.0878,VALID,230,VALID,0.984375,
2014-06-27, 09:48:04,VALID,920.712,VALID,0,VALID,71.7973,VALID,364.978,VALID,23.953,VALID,212,VALID,0.765234,
2014-06-27, 09:49:04,VALID,920.713,VALID,0,VALID,71.2637,VALID,364.655,VALID,23.8926,VALID,254,VALID,1.3,
2014-06-27, 09:50:04,VALID,920.725,VALID,0,VALID,72.9103,VALID,359.606,VALID,23.8358,VALID,262,VALID,0.823828,
2014-06-27, 09:51:04,VALID,920.716,VALID,0,VALID,73.0933,VALID,350.043,VALID,23.7755,VALID,261,VALID,0.814453,
2014-06-27, 09:52:04,VALID,920.717,VALID,0,VALID,72.1709,VALID,339.836,VALID,23.795,VALID,215,VALID,1.0668,
2014-06-27, 09:53:04,VALID,920.74,VALID,0,VALID,73.2839,VALID,332.208,VALID,23.8731,VALID,240,VALID,0.497656,
2014-06-27, 09:54:04,VALID,920.763,VALID,0,VALID,71.561,VALID,328.877,VALID,23.9121,VALID,218,VALID,0.71875,
2014-06-27, 09:55:04,VALID,920.782,VALID,0,VALID,72.2547,VALID,334.142,VALID,23.9902,VALID,229,VALID,0.702344,
2014-06-27, 09:56:04,VALID,920.774,VALID,0,VALID,72.4148,VALID,347.787,VALID,24.1464,VALID,213,VALID,0.728516,
2014-06-27, 09:57:04,VALID,920.805,VALID,0,VALID,71.5991,VALID,343.489,VALID,24.1659,VALID,227,VALID,0.139453,
2014-06-27, 09:58:04,VALID,920.773,VALID,0,VALID,72.1633,VALID,338.977,VALID,24.2635,VALID,221,VALID,0.571094,
2014-06-27, 09:59:04,VALID,920.782,VALID,0,VALID,71.6372,VALID,335.754,VALID,24.3611,VALID,228,VALID,0.819141,
2014-06-27, 10:00:04,VALID,920.806,VALID,0,VALID,72.1861,VALID,336.183,VALID,24.2226,VALID,239,VALID,0.938281,
2014-06-27, 10:01:04,VALID,920.775,VALID,0,VALID,73.2915,VALID,343.06,VALID,24.125,VALID,239,VALID,0.609766,
2014-06-27, 10:02:04,VALID,920.765,VALID,0,VALID,72.5444,VALID,364.44,VALID,23.9866,VALID,261,VALID,0.8125,
2014-06-27, 10:03:04,VALID,920.765,VALID,0,VALID,75.5404,VALID,430.087,VALID,23.9298,VALID,261,VALID,0.477734,
2014-06-27, 10:04:04,VALID,920.729,VALID,0,VALID,74.9153,VALID,637.019,VALID,24.0292,VALID,340,VALID,0.275391,
2014-06-27, 10:05:04,VALID,920.737,VALID,0,VALID,71.9498,VALID,704.921,VALID,24.283,VALID,274,VALID,1.28516,
2014-06-27, 10:06:04,VALID,920.733,VALID,0,VALID,73.1772,VALID,495.304,VALID,24.3825,VALID,24,VALID,0.395312,
2014-06-27, 10:07:04,VALID,920.718,VALID,0,VALID,73.0933,VALID,541.074,VALID,24.5778,VALID,45,VALID,0.851172,
2014-06-27, 10:08:04,VALID,920.718,VALID,0,VALID,73.1467,VALID,522.271,VALID,24.6735,VALID,7,VALID,1.08359,
2014-06-27, 10:09:04,VALID,920.693,VALID,0,VALID,71.7592,VALID,651.845,VALID,24.7126,VALID,20,VALID,1.79648,
2014-06-27, 10:10:04,VALID,920.716,VALID,0,VALID,70.1735,VALID,526.032,VALID,24.734,VALID,292,VALID,1.52813,
2014-06-27, 10:11:04,VALID,920.684,VALID,0,VALID,71.1265,VALID,592.538,VALID,24.6949,VALID,22,VALID,1.32852,
2014-06-27, 10:12:04,VALID,920.711,VALID,0,VALID,72.1404,VALID,637.878,VALID,24.8707,VALID,7,VALID,0.818359,
2014-06-27, 10:13:04,VALID,920.744,VALID,0,VALID,70.1659,VALID,718.244,VALID,24.7711,VALID,296,VALID,0.910547,
2014-06-27, 10:14:04,VALID,920.725,VALID,0,VALID,71.0884,VALID,574.703,VALID,24.7535,VALID,304,VALID,1.0207,
2014-06-27, 10:15:04,VALID,920.734,VALID,0,VALID,70.7758,VALID,708.897,VALID,24.6149,VALID,277,VALID,0.604688,
2014-06-27, 10:16:04,VALID,920.76,VALID,0,VALID,72.2852,VALID,789.478,VALID,24.693,VALID,304,VALID,1.13125,
2014-06-27, 10:17:04,VALID,920.767,VALID,0,VALID,72.1709,VALID,587.596,VALID,24.734,VALID,34,VALID,1.80078,
2014-06-27, 10:18:04,VALID,920.759,VALID,0,VALID,69.9601,VALID,370.027,VALID,24.8297,VALID,3,VALID,0.858594,
2014-06-27, 10:19:04,VALID,920.761,VALID,0,VALID,69.5484,VALID,653.779,VALID,24.7321,VALID,303,VALID,0.660937,
2014-06-27, 10:20:04,VALID,920.711,VALID,0,VALID,71.0502,VALID,651.201,VALID,24.8297,VALID,11,VALID,1.42266,
2014-06-27, 10:21:04,VALID,920.732,VALID,0,VALID,71.1265,VALID,490.899,VALID,24.9859,VALID,15,VALID,1.17266,
2014-06-27, 10:22:04,VALID,920.747,VALID,0,VALID,68.5345,VALID,428.583,VALID,25.0036,VALID,4,VALID,1.57578,
2014-06-27, 10:23:04,VALID,920.689,VALID,0,VALID,70.1735,VALID,467.476,VALID,24.8845,VALID,344,VALID,3.01992,
2014-06-27, 10:24:04,VALID,920.73,VALID,0,VALID,69.3883,VALID,579.323,VALID,24.7107,VALID,6,VALID,1.58438,
2014-06-27, 10:25:04,VALID,920.708,VALID,0,VALID,70.7072,VALID,578.248,VALID,24.5917,VALID,16,VALID,2.38828,
2014-06-27, 10:26:04,VALID,920.62,VALID,0,VALID,71.4314,VALID,413.219,VALID,24.4745,VALID,24,VALID,2.71211,
2014-06-27, 10:27:04,VALID,920.687,VALID,0,VALID,70.1278,VALID,453.079,VALID,24.4178,VALID,15,VALID,2.5293,
2014-06-27, 10:28:04,VALID,920.703,VALID,0,VALID,68.9081,VALID,433.74,VALID,24.3593,VALID,329,VALID,1.20391,
2014-06-27, 10:29:04,VALID,920.68,VALID,0,VALID,69.8839,VALID,535.057,VALID,24.2635,VALID,35,VALID,1.99805,
2014-06-27, 10:30:04,VALID,920.733,VALID,0,VALID,71.9803,VALID,468.443,VALID,24.2421,VALID,1,VALID,2.57539,
2014-06-27, 10:31:04,VALID,920.739,VALID,0,VALID,71.4771,VALID,374.432,VALID,24.283,VALID,319,VALID,1.38203,
2014-06-27, 10:32:04,VALID,920.786,VALID,0,VALID,71.4695,VALID,354.448,VALID,24.244,VALID,312,VALID,1.86367,
2014-06-27, 10:33:04,VALID,920.7,VALID,0,VALID,71.7287,VALID,398.284,VALID,24.1055,VALID,13,VALID,2.08984,
2014-06-27, 10:34:04,VALID,920.721,VALID,0,VALID,73.6422,VALID,433.095,VALID,24.1445,VALID,35,VALID,1.59961,
2014-06-27, 10:35:04,VALID,920.761,VALID,0,VALID,72.3005,VALID,454.476,VALID,24.363,VALID,355,VALID,1.4207,
2014-06-27, 10:36:04,VALID,920.715,VALID,0,VALID,72.8494,VALID,402.367,VALID,24.3983,VALID,14,VALID,1.19961,
2014-06-27, 10:37:04,VALID,920.738,VALID,0,VALID,70.7987,VALID,443.41,VALID,24.2989,VALID,21,VALID,2.70664,
2014-06-27, 10:38:04,VALID,920.762,VALID,0,VALID,71.7058,VALID,565.248,VALID,24.3788,VALID,29,VALID,2.86484,